Time,TemperatureF,DewpointF,PressureIn,WindDirection,WindDirectionDegrees,WindSpeedMPH,WindSpeedGustMPH,Humidity,HourlyPrecipIn,Conditions,Clouds,dailyrainin,SolarRadiationWatts/m^2,SoftwareType,DateUTC
2013-04-09 00:00:00,66.8,53.4,30.04,WSW,242,1.0,-999.0,62,0.00,,,0.00,0,Wunderground v.1.15,2013-04-09 04:00:00,
2013-04-09 00:02:00,66.7,53.3,30.05,WSW,242,0.0,-999.0,62,0.00,,,0.00,0,Wunderground v.1.15,2013-04-09 04:02:00,
2013-04-09 00:07:00,66.6,53.2,30.05,WSW,242,0.0,-999.0,62,0.00,,,0.00,0,Wunderground v.1.15,2013-04-09 04:07:00,
2013-04-09 00:08:00,66.6,53.2,30.05,WSW,242,0.0,-999.0,62,0.00,,,0.00,0,Wunderground v.1.15,2013-04-09 04:08:00,
2013-04-09 00:15:00,66.4,53.4,30.05,WSW,242,0.0,-999.0,63,0.00,,,0.00,0,Wunderground v.1.15,2013-04-09 04:15:00,
2013-04-09 00:21:00,66.2,53.2,30.05,WSW,242,0.0,-999.0,63,0.00,,,0.00,0,Wunderground v.1.15,2013-04-09 04:21:00,
2013-04-09 00:27:00,66.1,53.1,30.05,WSW,242,0.0,-999.0,63,0.00,,,0.00,0,Wunderground v.1.15,2013-04-09 04:27:00,
2013-04-09 00:33:00,65.9,52.9,30.05,WSW,242,0.0,-999.0,63,0.00,,,0.00,0,Wunderground v.1.15,2013-04-09 04:33:00,
2013-04-09 00:39:00,65.8,53.3,30.05,WSW,242,0.0,-999.0,64,0.00,,,0.00,0,Wunderground v.1.15,2013-04-09 04:39:00,
2013-04-09 00:45:00,65.6,53.1,30.06,WSW,242,0.0,-999.0,64,0.00,,,0.00,0,Wunderground v.1.15,2013-04-09 04:45:00,
2013-04-09 00:51:00,65.4,52.9,30.06,WSW,242,0.0,-999.0,64,0.00,,,0.00,0,Wunderground v.1.15,2013-04-09 04:51:00,
2013-04-09 00:56:00,65.2,52.7,30.05,WSW,242,0.0,-999.0,64,0.00,,,0.00,0,Wunderground v.1.15,2013-04-09 04:56:00,
2013-04-09 01:01:00,65.0,52.9,30.05,WSW,242,0.0,-999.0,65,0.00,,,0.00,0,Wunderground v.1.15,2013-04-09 05:01:00,
2013-04-09 01:07:00,64.8,52.8,30.06,WSW,242,0.0,-999.0,65,0.00,,,0.00,0,Wunderground v.1.15,2013-04-09 05:07:00,
2013-04-09 01:12:00,64.5,52.9,30.06,WSW,242,0.0,-999.0,66,0.00,,,0.00,0,Wunderground v.1.15,2013-04-09 05:12:00,
2013-04-09 01:19:00,64.3,52.7,30.06,WSW,242,0.0,-999.0,66,0.00,,,0.00,0,Wunderground v.1.15,2013-04-09 05:19:00,
2013-04-09 01:25:00,64.2,52.6,30.06,WSW,242,0.0,-999.0,66,0.00,,,0.00,0,Wunderground v.1.15,2013-04-09 05:25:00,
2013-04-09 01:30:00,64.1,52.9,30.06,WSW,242,0.0,-999.0,67,0.00,,,0.00,0,Wunderground v.1.15,2013-04-09 05:30:00,
2013-04-09 01:36:00,64.1,52.9,30.06,SSW,211,1.0,-999.0,67,0.00,,,0.00,0,Wunderground v.1.15,2013-04-09 05:36:00,
2013-04-09 01:42:00,64.0,52.8,30.06,SW,214,1.0,-999.0,67,0.00,,,0.00,0,Wunderground v.1.15,2013-04-09 05:42:00,
2013-04-09 01:47:00,64.0,52.8,30.06,SW,214,0.0,-999.0,67,0.00,,,0.00,0,Wunderground v.1.15,2013-04-09 05:47:00,
2013-04-09 01:53:00,63.9,52.7,30.06,SW,214,0.0,-999.0,67,0.00,,,0.00,0,Wunderground v.1.15,2013-04-09 05:53:00,
2013-04-09 01:58:00,63.9,52.7,30.06,SSW,213,1.0,-999.0,67,0.00,,,0.00,0,Wunderground v.1.15,2013-04-09 05:58:00,
2013-04-09 02:04:00,63.7,52.9,30.06,SSW,213,0.0,-999.0,68,0.00,,,0.00,0,Wunderground v.1.15,2013-04-09 06:04:00,
2013-04-09 02:10:00,63.5,52.7,30.06,SSW,213,0.0,-999.0,68,0.00,,,0.00,0,Wunderground v.1.15,2013-04-09 06:10:00,
2013-04-09 02:16:00,63.4,52.7,30.06,SSW,213,0.0,-999.0,68,0.00,,,0.00,0,Wunderground v.1.15,2013-04-09 06:16:00,
2013-04-09 02:21:00,63.3,53.0,30.06,SSW,213,0.0,-999.0,69,0.00,,,0.00,0,Wunderground v.1.15,2013-04-09 06:21:00,
2013-04-09 02:26:00,63.1,52.8,30.06,SSW,213,0.0,-999.0,69,0.00,,,0.00,0,Wunderground v.1.15,2013-04-09 06:26:00,
2013-04-09 02:32:00,62.9,52.6,30.06,SSW,213,0.0,-999.0,69,0.00,,,0.00,0,Wunderground v.1.15,2013-04-09 06:32:00,
2013-04-09 02:37:00,62.8,52.5,30.06,SSW,213,0.0,-999.0,69,0.00,,,0.00,0,Wunderground v.1.15,2013-04-09 06:37:00,
2013-04-09 02:43:00,62.5,52.6,30.06,SSW,213,0.0,-999.0,70,0.00,,,0.00,0,Wunderground v.1.15,2013-04-09 06:43:00,
2013-04-09 02:48:00,62.3,52.4,30.06,SSW,213,0.0,-999.0,70,0.00,,,0.00,0,Wunderground v.1.15,2013-04-09 06:48:00,
2013-04-09 02:54:00,62.1,52.6,30.06,SSW,213,0.0,-999.0,71,0.00,,,0.00,0,Wunderground v.1.15,2013-04-09 06:54:00,
2013-04-09 03:00:00,61.8,52.7,30.06,SSW,213,0.0,-999.0,72,0.00,,,0.00,0,Wunderground v.1.15,2013-04-09 07:00:00,
2013-04-09 03:05:00,61.7,52.6,30.06,SSW,213,1.0,-999.0,72,0.00,,,0.00,0,Wunderground v.1.15,2013-04-09 07:05:00,
2013-04-09 03:13:00,61.5,52.8,30.06,SSW,213,0.0,-999.0,73,0.00,,,0.00,0,Wunderground v.1.15,2013-04-09 07:13:00,
2013-04-09 03:19:00,61.3,52.6,30.06,SSW,213,0.0,-999.0,73,0.00,,,0.00,0,Wunderground v.1.15,2013-04-09 07:19:00,
2013-04-09 03:24:00,61.2,52.5,30.06,SSW,213,0.0,-999.0,73,0.00,,,0.00,0,Wunderground v.1.15,2013-04-09 07:24:00,
2013-04-09 03:30:00,61.1,52.7,30.07,SSW,213,0.0,-999.0,74,0.00,,,0.00,0,Wunderground v.1.15,2013-04-09 07:30:00,
2013-04-09 03:37:00,60.9,52.9,30.07,SW,219,0.0,-999.0,75,0.00,,,0.00,0,Wunderground v.1.15,2013-04-09 07:37:00,
2013-04-09 03:43:00,60.7,52.7,30.07,SW,219,1.0,-999.0,75,0.00,,,0.00,0,Wunderground v.1.15,2013-04-09 07:43:00,
2013-04-09 03:48:00,60.7,53.1,30.07,SW,219,0.0,-999.0,76,0.00,,,0.00,0,Wunderground v.1.15,2013-04-09 07:48:00,
2013-04-09 03:54:00,60.6,53.0,30.07,SW,218,1.0,-999.0,76,0.00,,,0.00,0,Wunderground v.1.15,2013-04-09 07:54:00,
2013-04-09 03:59:00,60.6,53.3,30.07,WSW,243,1.0,-999.0,77,0.00,,,0.00,0,Wunderground v.1.15,2013-04-09 07:59:00,
2013-04-09 04:05:00,60.5,53.3,30.07,WSW,244,2.0,-999.0,77,0.00,,,0.00,0,Wunderground v.1.15,2013-04-09 08:05:00,
2013-04-09 04:12:00,60.5,53.3,30.07,WSW,247,1.0,-999.0,77,0.00,,,0.00,0,Wunderground v.1.15,2013-04-09 08:12:00,
2013-04-09 04:17:00,60.5,53.3,30.07,SW,227,1.0,-999.0,77,0.00,,,0.00,0,Wunderground v.1.15,2013-04-09 08:17:00,
2013-04-09 04:23:00,60.5,53.6,30.07,WSW,248,1.0,-999.0,78,0.00,,,0.00,0,Wunderground v.1.15,2013-04-09 08:23:00,
2013-04-09 04:28:00,60.5,53.6,30.07,WSW,237,1.0,-999.0,78,0.00,,,0.00,0,Wunderground v.1.15,2013-04-09 08:28:00,
2013-04-09 04:34:00,60.6,53.7,30.07,WSW,245,1.0,-999.0,78,0.00,,,0.00,0,Wunderground v.1.15,2013-04-09 08:34:00,
2013-04-09 04:39:00,60.6,53.7,30.07,WSW,245,1.0,-999.0,78,0.00,,,0.00,0,Wunderground v.1.15,2013-04-09 08:39:00,
2013-04-09 04:45:00,60.5,53.6,30.07,WSW,245,0.0,-999.0,78,0.00,,,0.00,0,Wunderground v.1.15,2013-04-09 08:45:00,
2013-04-09 04:51:00,60.5,53.6,30.07,WSW,245,0.0,-999.0,78,0.00,,,0.00,0,Wunderground v.1.15,2013-04-09 08:51:00,
2013-04-09 04:57:00,60.5,54.0,30.07,WSW,244,1.0,-999.0,79,0.00,,,0.00,0,Wunderground v.1.15,2013-04-09 08:57:00,
2013-04-09 05:02:00,60.5,54.0,30.07,WSW,243,1.0,-999.0,79,0.00,,,0.00,0,Wunderground v.1.15,2013-04-09 09:02:00,
2013-04-09 05:08:00,60.5,54.0,30.07,WSW,243,1.0,-999.0,79,0.00,,,0.00,0,Wunderground v.1.15,2013-04-09 09:08:00,
2013-04-09 05:13:00,60.4,53.9,30.08,WSW,243,0.0,-999.0,79,0.00,,,0.00,0,Wunderground v.1.15,2013-04-09 09:13:00,
2013-04-09 05:20:00,60.3,53.8,30.08,WSW,243,0.0,-999.0,79,0.00,,,0.00,0,Wunderground v.1.15,2013-04-09 09:20:00,
2013-04-09 05:25:00,60.2,53.7,30.08,WSW,243,0.0,-999.0,79,0.00,,,0.00,0,Wunderground v.1.15,2013-04-09 09:25:00,
2013-04-09 05:30:00,60.1,53.9,30.08,WSW,243,0.0,-999.0,80,0.00,,,0.00,0,Wunderground v.1.15,2013-04-09 09:30:00,
2013-04-09 05:36:00,60.0,53.8,30.08,WSW,243,0.0,-999.0,80,0.00,,,0.00,0,Wunderground v.1.15,2013-04-09 09:36:00,
2013-04-09 05:41:00,59.9,53.7,30.09,WSW,243,0.0,-999.0,80,0.00,,,0.00,0,Wunderground v.1.15,2013-04-09 09:41:00,
2013-04-09 05:47:00,59.8,54.0,30.09,WSW,243,1.0,-999.0,81,0.00,,,0.00,0,Wunderground v.1.15,2013-04-09 09:47:00,
2013-04-09 05:53:00,59.6,53.8,30.09,WSW,243,1.0,-999.0,81,0.00,,,0.00,0,Wunderground v.1.15,2013-04-09 09:53:00,
2013-04-09 05:59:00,59.6,53.8,30.09,WSW,243,0.0,-999.0,81,0.00,,,0.00,0,Wunderground v.1.15,2013-04-09 09:59:00,
2013-04-09 06:04:00,59.4,53.6,30.09,WSW,243,1.0,-999.0,81,0.00,,,0.00,0,Wunderground v.1.15,2013-04-09 10:04:00,
2013-04-09 06:11:00,59.3,53.8,30.09,WSW,243,0.0,-999.0,82,0.00,,,0.00,0,Wunderground v.1.15,2013-04-09 10:11:00,
2013-04-09 06:16:00,59.2,53.7,30.10,WSW,243,0.0,-999.0,82,0.00,,,0.00,0,Wunderground v.1.15,2013-04-09 10:16:00,
2013-04-09 06:22:00,59.0,53.5,30.10,WSW,242,1.0,-999.0,82,0.00,,,0.00,0,Wunderground v.1.15,2013-04-09 10:22:00,
2013-04-09 06:27:00,59.0,53.5,30.10,WSW,242,1.0,-999.0,82,0.00,,,0.00,0,Wunderground v.1.15,2013-04-09 10:27:00,
2013-04-09 06:33:00,59.0,53.5,30.10,WSW,242,0.0,-999.0,82,0.00,,,0.00,0,Wunderground v.1.15,2013-04-09 10:33:00,
2013-04-09 06:39:00,59.0,53.5,30.11,WSW,242,0.0,-999.0,82,0.00,,,0.00,0,Wunderground v.1.15,2013-04-09 10:39:00,
2013-04-09 06:45:00,59.0,53.8,30.11,WSW,242,0.0,-999.0,83,0.00,,,0.00,0,Wunderground v.1.15,2013-04-09 10:45:00,
2013-04-09 06:50:00,58.9,53.7,30.11,WSW,242,0.0,-999.0,83,0.00,,,0.00,0,Wunderground v.1.15,2013-04-09 10:50:00,
2013-04-09 06:56:00,58.8,53.6,30.11,WSW,242,0.0,-999.0,83,0.00,,,0.00,0,Wunderground v.1.15,2013-04-09 10:56:00,
2013-04-09 07:02:00,58.6,53.5,30.11,WSW,242,0.0,-999.0,83,0.00,,,0.00,7,Wunderground v.1.15,2013-04-09 11:02:00,
2013-04-09 07:07:00,58.5,53.4,30.11,WSW,242,0.0,-999.0,83,0.00,,,0.00,11,Wunderground v.1.15,2013-04-09 11:07:00,
2013-04-09 07:13:00,58.4,53.3,30.12,WSW,242,0.0,-999.0,83,0.00,,,0.00,14,Wunderground v.1.15,2013-04-09 11:13:00,
2013-04-09 07:18:00,58.4,53.6,30.12,WSW,242,0.0,-999.0,84,0.00,,,0.00,19,Wunderground v.1.15,2013-04-09 11:18:00,
2013-04-09 07:23:00,58.4,53.6,30.12,WSW,242,0.0,-999.0,84,0.00,,,0.00,25,Wunderground v.1.15,2013-04-09 11:23:00,
2013-04-09 07:29:00,58.3,53.5,30.12,WSW,242,0.0,-999.0,84,0.00,,,0.00,28,Wunderground v.1.15,2013-04-09 11:29:00,
2013-04-09 07:34:00,58.3,53.5,30.12,WSW,242,0.0,-999.0,84,0.00,,,0.00,33,Wunderground v.1.15,2013-04-09 11:34:00,
2013-04-09 07:39:00,58.4,53.6,30.12,WSW,242,0.0,-999.0,84,0.00,,,0.00,37,Wunderground v.1.15,2013-04-09 11:39:00,
2013-04-09 07:45:00,58.4,53.6,30.12,WSW,242,0.0,-999.0,84,0.00,,,0.00,42,Wunderground v.1.15,2013-04-09 11:45:00,
2013-04-09 07:50:00,58.5,54.0,30.13,WSW,242,1.0,-999.0,85,0.00,,,0.00,56,Wunderground v.1.15,2013-04-09 11:50:00,
2013-04-09 07:55:00,58.6,54.1,30.13,WSW,242,1.0,-999.0,85,0.00,,,0.00,58,Wunderground v.1.15,2013-04-09 11:55:00,
2013-04-09 08:01:00,58.8,54.0,30.13,WSW,242,1.0,-999.0,84,0.00,,,0.00,176,Wunderground v.1.15,2013-04-09 12:01:00,
2013-04-09 08:07:00,59.0,54.2,30.13,SW,218,1.0,-999.0,84,0.00,,,0.00,221,Wunderground v.1.15,2013-04-09 12:07:00,
2013-04-09 08:12:00,59.0,54.2,30.13,SW,229,1.0,-999.0,84,0.00,,,0.00,243,Wunderground v.1.15,2013-04-09 12:12:00,
2013-04-09 08:17:00,59.4,54.6,30.13,SW,229,1.0,-999.0,84,0.00,,,0.00,264,Wunderground v.1.15,2013-04-09 12:17:00,
2013-04-09 08:23:00,59.9,54.7,30.13,SW,231,1.0,-999.0,83,0.00,,,0.00,287,Wunderground v.1.15,2013-04-09 12:23:00,
2013-04-09 08:29:00,60.3,54.8,30.13,SW,233,1.0,-999.0,82,0.00,,,0.00,301,Wunderground v.1.15,2013-04-09 12:29:00,
2013-04-09 08:34:00,60.8,55.3,30.13,WSW,241,1.0,-999.0,82,0.00,,,0.00,329,Wunderground v.1.15,2013-04-09 12:34:00,
2013-04-09 08:40:00,61.4,55.5,30.14,WSW,240,0.0,-999.0,81,0.00,,,0.00,299,Wunderground v.1.15,2013-04-09 12:40:00,
2013-04-09 08:46:00,62.1,55.9,30.14,WSW,243,0.0,-999.0,80,0.00,,,0.00,367,Wunderground v.1.15,2013-04-09 12:46:00,
2013-04-09 08:52:00,62.7,56.1,30.14,SW,236,1.0,-999.0,79,0.00,,,0.00,320,Wunderground v.1.15,2013-04-09 12:52:00,
2013-04-09 08:58:00,63.2,56.2,30.14,WSW,254,1.0,-999.0,78,0.00,,,0.00,283,Wunderground v.1.15,2013-04-09 12:58:00,
2013-04-09 09:04:00,63.9,56.2,30.14,WSW,248,1.0,-999.0,76,0.00,,,0.00,369,Wunderground v.1.15,2013-04-09 13:04:00,
2013-04-09 09:10:00,64.5,56.4,30.14,WNW,295,1.0,-999.0,75,0.00,,,0.00,288,Wunderground v.1.15,2013-04-09 13:10:00,
2013-04-09 09:16:00,65.0,56.5,30.14,SW,218,2.0,-999.0,74,0.00,,,0.00,413,Wunderground v.1.15,2013-04-09 13:16:00,
2013-04-09 09:22:00,65.5,56.6,30.14,WNW,295,3.0,-999.0,73,0.00,,,0.00,366,Wunderground v.1.15,2013-04-09 13:22:00,
2013-04-09 09:27:00,65.8,56.9,30.14,WSW,251,2.0,-999.0,73,0.00,,,0.00,292,Wunderground v.1.15,2013-04-09 13:27:00,
2013-04-09 09:33:00,66.4,57.1,30.14,WSW,244,1.0,-999.0,72,0.00,,,0.00,489,Wunderground v.1.15,2013-04-09 13:33:00,
2013-04-09 09:38:00,67.0,57.3,30.14,WNW,283,1.0,-999.0,71,0.00,,,0.00,316,Wunderground v.1.15,2013-04-09 13:38:00,
2013-04-09 09:44:00,68.0,57.4,30.14,SW,215,1.0,-999.0,69,0.00,,,0.00,466,Wunderground v.1.15,2013-04-09 13:44:00,
2013-04-09 09:50:00,68.3,57.3,30.14,WSW,254,2.0,-999.0,68,0.00,,,0.00,522,Wunderground v.1.15,2013-04-09 13:50:00,
2013-04-09 09:56:00,68.9,57.5,30.14,West,263,1.0,-999.0,67,0.00,,,0.00,621,Wunderground v.1.15,2013-04-09 13:56:00,
2013-04-09 10:01:00,69.2,57.8,30.14,West,262,1.0,-999.0,67,0.00,,,0.00,638,Wunderground v.1.15,2013-04-09 14:01:00,
2013-04-09 10:07:00,70.0,57.7,30.14,West,262,1.0,-999.0,65,0.00,,,0.00,654,Wunderground v.1.15,2013-04-09 14:07:00,
2013-04-09 10:13:00,70.8,58.0,30.15,WSW,250,1.0,-999.0,64,0.00,,,0.00,673,Wunderground v.1.15,2013-04-09 14:13:00,
2013-04-09 10:18:00,70.6,57.8,30.15,West,269,1.0,-999.0,64,0.00,,,0.00,689,Wunderground v.1.15,2013-04-09 14:18:00,
2013-04-09 10:25:00,70.8,58.0,30.15,SW,223,2.0,-999.0,64,0.00,,,0.00,707,Wunderground v.1.15,2013-04-09 14:25:00,
2013-04-09 10:30:00,71.8,59.0,30.15,WSW,243,2.0,-999.0,64,0.00,,,0.00,717,Wunderground v.1.15,2013-04-09 14:30:00,
2013-04-09 10:36:00,72.5,58.7,30.14,SSW,196,1.0,-999.0,62,0.00,,,0.00,735,Wunderground v.1.15,2013-04-09 14:36:00,
2013-04-09 10:41:00,73.1,58.8,30.14,WSW,240,1.0,-999.0,61,0.00,,,0.00,749,Wunderground v.1.15,2013-04-09 14:41:00,
2013-04-09 10:47:00,73.3,59.0,30.14,WSW,250,1.0,-999.0,61,0.00,,,0.00,761,Wunderground v.1.15,2013-04-09 14:47:00,
2013-04-09 10:52:00,73.9,59.6,30.14,WSW,250,1.0,-999.0,61,0.00,,,0.00,777,Wunderground v.1.15,2013-04-09 14:52:00,
2013-04-09 10:58:00,74.1,59.3,30.14,WSW,250,1.0,-999.0,60,0.00,,,0.00,786,Wunderground v.1.15,2013-04-09 14:58:00,
2013-04-09 11:03:00,74.5,59.2,30.14,SSE,166,2.0,-999.0,59,0.00,,,0.00,800,Wunderground v.1.15,2013-04-09 15:03:00,
2013-04-09 11:10:00,74.8,59.0,30.14,SW,217,1.0,-999.0,58,0.00,,,0.00,812,Wunderground v.1.15,2013-04-09 15:10:00,
2013-04-09 11:15:00,75.5,59.7,30.14,South,182,1.0,-999.0,58,0.00,,,0.00,823,Wunderground v.1.15,2013-04-09 15:15:00,
2013-04-09 11:20:00,76.2,59.9,30.14,SSW,210,1.0,-999.0,57,0.00,,,0.00,831,Wunderground v.1.15,2013-04-09 15:20:00,
2013-04-09 11:26:00,75.9,59.6,30.14,SSW,206,1.0,-999.0,57,0.00,,,0.00,840,Wunderground v.1.15,2013-04-09 15:26:00,
2013-04-09 11:32:00,76.6,60.2,30.14,SSW,199,2.0,-999.0,57,0.00,,,0.00,853,Wunderground v.1.15,2013-04-09 15:32:00,
2013-04-09 11:37:00,77.3,60.4,30.14,SSW,195,2.0,-999.0,56,0.00,,,0.00,860,Wunderground v.1.15,2013-04-09 15:37:00,
2013-04-09 11:42:00,77.4,59.5,30.13,SSW,207,1.0,-999.0,54,0.00,,,0.00,868,Wunderground v.1.15,2013-04-09 15:42:00,
2013-04-09 11:49:00,77.6,59.6,30.13,SW,219,2.0,-999.0,54,0.00,,,0.00,879,Wunderground v.1.15,2013-04-09 15:49:00,
2013-04-09 11:55:00,78.6,60.0,30.13,WSW,246,2.0,-999.0,53,0.00,,,0.00,886,Wunderground v.1.15,2013-04-09 15:55:00,
2013-04-09 12:00:00,78.9,59.8,30.13,SSW,208,1.0,-999.0,52,0.00,,,0.00,882,Wunderground v.1.15,2013-04-09 16:00:00,
2013-04-09 12:06:00,79.0,58.8,30.13,SSE,162,1.0,-999.0,50,0.00,,,0.00,896,Wunderground v.1.15,2013-04-09 16:06:00,
2013-04-09 12:12:00,78.9,59.2,30.12,SSE,159,2.0,-999.0,51,0.00,,,0.00,900,Wunderground v.1.15,2013-04-09 16:12:00,
2013-04-09 12:17:00,79.1,58.9,30.12,South,186,2.0,-999.0,50,0.00,,,0.00,911,Wunderground v.1.15,2013-04-09 16:17:00,
2013-04-09 12:23:00,79.5,59.2,30.12,SW,233,2.0,-999.0,50,0.00,,,0.00,912,Wunderground v.1.15,2013-04-09 16:23:00,
2013-04-09 12:29:00,80.5,59.6,30.12,SSW,197,1.0,-999.0,49,0.00,,,0.00,914,Wunderground v.1.15,2013-04-09 16:29:00,
2013-04-09 12:35:00,80.8,59.9,30.11,SW,232,1.0,-999.0,49,0.00,,,0.00,912,Wunderground v.1.15,2013-04-09 16:35:00,
2013-04-09 12:40:00,80.4,59.5,30.11,SSW,204,1.0,-999.0,49,0.00,,,0.00,921,Wunderground v.1.15,2013-04-09 16:40:00,
2013-04-09 12:46:00,80.5,60.1,30.11,SW,215,1.0,-999.0,50,0.00,,,0.00,919,Wunderground v.1.15,2013-04-09 16:46:00,
2013-04-09 12:51:00,80.6,59.1,30.11,SSE,167,1.0,-999.0,48,0.00,,,0.00,930,Wunderground v.1.15,2013-04-09 16:51:00,
2013-04-09 12:56:00,80.4,59.5,30.11,SW,214,2.0,-999.0,49,0.00,,,0.00,935,Wunderground v.1.15,2013-04-09 16:56:00,
2013-04-09 13:02:00,81.4,59.2,30.10,SW,231,3.0,-999.0,47,0.00,,,0.00,907,Wunderground v.1.15,2013-04-09 17:02:00,
2013-04-09 13:08:00,80.9,59.4,30.10,SSW,206,4.0,-999.0,48,0.00,,,0.00,900,Wunderground v.1.15,2013-04-09 17:08:00,
2013-04-09 13:13:00,81.1,59.0,30.10,SSW,197,3.0,-999.0,47,0.00,,,0.00,919,Wunderground v.1.15,2013-04-09 17:13:00,
2013-04-09 13:19:00,80.7,59.2,30.10,West,267,4.0,-999.0,48,0.00,,,0.00,914,Wunderground v.1.15,2013-04-09 17:19:00,
2013-04-09 13:25:00,81.4,59.8,30.10,SSW,205,4.0,-999.0,48,0.00,,,0.00,900,Wunderground v.1.15,2013-04-09 17:25:00,
2013-04-09 13:30:00,81.2,58.5,30.09,WSW,240,2.0,-999.0,46,0.00,,,0.00,912,Wunderground v.1.15,2013-04-09 17:30:00,
2013-04-09 13:36:00,80.7,58.6,30.09,SSE,167,1.0,-999.0,47,0.00,,,0.00,919,Wunderground v.1.15,2013-04-09 17:36:00,
2013-04-09 13:41:00,81.3,59.1,30.09,SW,232,2.0,-999.0,47,0.00,,,0.00,919,Wunderground v.1.15,2013-04-09 17:41:00,
2013-04-09 13:47:00,82.6,60.3,30.09,South,184,3.0,-999.0,47,0.00,,,0.00,884,Wunderground v.1.15,2013-04-09 17:47:00,
2013-04-09 13:52:00,81.6,59.4,30.09,SW,220,2.0,-999.0,47,0.00,,,0.00,851,Wunderground v.1.15,2013-04-09 17:52:00,
2013-04-09 13:58:00,81.6,58.8,30.08,SE,138,2.0,-999.0,46,0.00,,,0.00,949,Wunderground v.1.15,2013-04-09 17:58:00,
2013-04-09 14:04:00,82.8,59.3,30.09,SSE,166,2.0,-999.0,45,0.00,,,0.00,925,Wunderground v.1.15,2013-04-09 18:04:00,
2013-04-09 14:09:00,82.9,59.4,30.08,SSW,204,3.0,-999.0,45,0.00,,,0.00,835,Wunderground v.1.15,2013-04-09 18:09:00,
2013-04-09 14:15:00,82.6,59.7,30.08,SW,228,3.0,-999.0,46,0.00,,,0.00,900,Wunderground v.1.15,2013-04-09 18:15:00,
2013-04-09 14:20:00,82.0,58.6,30.08,West,263,3.0,-999.0,45,0.00,,,0.00,860,Wunderground v.1.15,2013-04-09 18:20:00,
2013-04-09 14:26:00,82.1,58.7,30.08,SW,234,3.0,-999.0,45,0.00,,,0.00,861,Wunderground v.1.15,2013-04-09 18:26:00,
2013-04-09 14:32:00,82.7,59.2,30.08,South,181,3.0,-999.0,45,0.00,,,0.00,865,Wunderground v.1.15,2013-04-09 18:32:00,
2013-04-09 14:38:00,82.2,59.4,30.07,SSW,200,4.0,-999.0,46,0.00,,,0.00,835,Wunderground v.1.15,2013-04-09 18:38:00,
2013-04-09 14:43:00,82.9,59.4,30.07,SSW,211,4.0,-999.0,45,0.00,,,0.00,830,Wunderground v.1.15,2013-04-09 18:43:00,
2013-04-09 14:49:00,82.8,58.7,30.07,SSE,159,2.0,-999.0,44,0.00,,,0.00,796,Wunderground v.1.15,2013-04-09 18:49:00,
2013-04-09 14:54:00,83.1,58.9,30.07,South,179,2.0,-999.0,44,0.00,,,0.00,737,Wunderground v.1.15,2013-04-09 18:54:00,
2013-04-09 14:59:00,83.1,58.9,30.07,South,188,3.0,-999.0,44,0.00,,,0.00,768,Wunderground v.1.15,2013-04-09 18:59:00,
2013-04-09 15:05:00,82.3,59.4,30.06,WNW,283,5.0,-999.0,46,0.00,,,0.00,751,Wunderground v.1.15,2013-04-09 19:05:00,
2013-04-09 15:11:00,83.4,59.2,30.06,South,186,3.0,-999.0,44,0.00,,,0.00,763,Wunderground v.1.15,2013-04-09 19:11:00,
2013-04-09 15:17:00,84.1,59.2,30.05,SSE,164,2.0,-999.0,43,0.00,,,0.00,749,Wunderground v.1.15,2013-04-09 19:17:00,
2013-04-09 15:23:00,83.8,58.9,30.05,WNW,302,4.0,-999.0,43,0.00,,,0.00,733,Wunderground v.1.15,2013-04-09 19:23:00,
2013-04-09 15:30:00,83.1,58.3,30.05,South,190,5.0,-999.0,43,0.00,,,0.00,696,Wunderground v.1.15,2013-04-09 19:30:00,
2013-04-09 15:35:00,83.4,59.8,30.04,South,171,3.0,-999.0,45,0.00,,,0.00,689,Wunderground v.1.15,2013-04-09 19:35:00,
2013-04-09 15:41:00,84.3,60.0,30.04,WSW,249,2.0,-999.0,44,0.00,,,0.00,671,Wunderground v.1.15,2013-04-09 19:41:00,
2013-04-09 15:47:00,84.7,60.4,30.04,SW,235,1.0,-999.0,44,0.00,,,0.00,661,Wunderground v.1.15,2013-04-09 19:47:00,
2013-04-09 15:52:00,84.3,59.4,30.04,SSW,205,2.0,-999.0,43,0.00,,,0.00,633,Wunderground v.1.15,2013-04-09 19:52:00,
2013-04-09 15:58:00,83.7,58.8,30.03,SSW,211,5.0,-999.0,43,0.00,,,0.00,629,Wunderground v.1.15,2013-04-09 19:58:00,
2013-04-09 16:05:00,84.2,59.3,30.03,WSW,252,4.0,-999.0,43,0.00,,,0.00,615,Wunderground v.1.15,2013-04-09 20:05:00,
2013-04-09 16:11:00,84.0,59.1,30.03,SW,214,5.0,-999.0,43,0.00,,,0.00,589,Wunderground v.1.15,2013-04-09 20:11:00,
2013-04-09 16:16:00,84.2,58.6,30.02,South,190,5.0,-999.0,42,0.00,,,0.00,545,Wunderground v.1.15,2013-04-09 20:16:00,
2013-04-09 16:22:00,83.7,58.8,30.02,West,266,5.0,-999.0,43,0.00,,,0.00,555,Wunderground v.1.15,2013-04-09 20:22:00,
2013-04-09 16:27:00,83.7,58.8,30.03,SW,231,5.0,-999.0,43,0.00,,,0.00,541,Wunderground v.1.15,2013-04-09 20:27:00,
2013-04-09 16:32:00,84.0,59.7,30.02,WSW,249,4.0,-999.0,44,0.00,,,0.00,506,Wunderground v.1.15,2013-04-09 20:32:00,
2013-04-09 16:38:00,83.9,59.0,30.02,WSW,247,4.0,-999.0,43,0.00,,,0.00,487,Wunderground v.1.15,2013-04-09 20:38:00,
2013-04-09 16:43:00,83.7,58.8,30.02,WNW,295,5.0,-999.0,43,0.00,,,0.00,478,Wunderground v.1.15,2013-04-09 20:43:00,
2013-04-09 16:48:00,83.9,59.0,30.02,South,185,4.0,-999.0,43,0.00,,,0.00,471,Wunderground v.1.15,2013-04-09 20:48:00,
2013-04-09 16:54:00,84.0,59.1,30.03,WNW,302,4.0,-999.0,43,0.00,,,0.00,445,Wunderground v.1.15,2013-04-09 20:54:00,
2013-04-09 16:59:00,83.8,59.6,30.03,West,275,5.0,-999.0,44,0.00,,,0.00,404,Wunderground v.1.15,2013-04-09 20:59:00,
2013-04-09 17:04:00,83.6,59.4,30.03,WSW,242,6.0,-999.0,44,0.00,,,0.00,408,Wunderground v.1.15,2013-04-09 21:04:00,
2013-04-09 17:10:00,83.7,59.5,30.03,WNW,288,4.0,-999.0,44,0.00,,,0.00,376,Wunderground v.1.15,2013-04-09 21:10:00,
2013-04-09 17:15:00,83.6,59.4,30.02,WSW,245,5.0,-999.0,44,0.00,,,0.00,364,Wunderground v.1.15,2013-04-09 21:15:00,
2013-04-09 17:20:00,83.4,59.2,30.02,West,268,6.0,-999.0,44,0.00,,,0.00,341,Wunderground v.1.15,2013-04-09 21:20:00,
2013-04-09 17:26:00,83.1,59.6,30.02,SSW,213,6.0,-999.0,45,0.00,,,0.00,325,Wunderground v.1.15,2013-04-09 21:26:00,
2013-04-09 17:31:00,83.6,60.6,30.02,WSW,242,5.0,-999.0,46,0.00,,,0.00,301,Wunderground v.1.15,2013-04-09 21:31:00,
2013-04-09 17:37:00,83.6,60.0,30.02,WSW,241,3.0,-999.0,45,0.00,,,0.00,285,Wunderground v.1.15,2013-04-09 21:37:00,
2013-04-09 17:42:00,83.2,59.6,30.02,South,189,4.0,-999.0,45,0.00,,,0.00,262,Wunderground v.1.15,2013-04-09 21:42:00,
2013-04-09 17:48:00,83.2,60.3,30.02,South,188,4.0,-999.0,46,0.00,,,0.00,237,Wunderground v.1.15,2013-04-09 21:48:00,
2013-04-09 17:54:00,83.1,60.2,30.02,SW,236,4.0,-999.0,46,0.00,,,0.00,230,Wunderground v.1.15,2013-04-09 21:54:00,
2013-04-09 18:00:00,82.7,59.8,30.02,WSW,244,5.0,-999.0,46,0.00,,,0.00,207,Wunderground v.1.15,2013-04-09 22:00:00,
2013-04-09 18:05:00,82.7,59.8,30.02,SW,229,4.0,-999.0,46,0.00,,,0.00,193,Wunderground v.1.15,2013-04-09 22:05:00,
2013-04-09 18:11:00,82.7,60.4,30.02,SSW,198,4.0,-999.0,47,0.00,,,0.00,153,Wunderground v.1.15,2013-04-09 22:11:00,
2013-04-09 18:17:00,82.6,59.7,30.02,WNW,284,4.0,-999.0,46,0.00,,,0.00,139,Wunderground v.1.15,2013-04-09 22:17:00,
2013-04-09 18:22:00,82.4,60.1,30.02,WSW,249,4.0,-999.0,47,0.00,,,0.00,121,Wunderground v.1.15,2013-04-09 22:22:00,
2013-04-09 18:28:00,82.3,60.1,30.01,South,190,4.0,-999.0,47,0.00,,,0.00,105,Wunderground v.1.15,2013-04-09 22:28:00,
2013-04-09 18:34:00,82.2,60.0,30.02,SW,223,5.0,-999.0,47,0.00,,,0.00,86,Wunderground v.1.15,2013-04-09 22:34:00,
2013-04-09 18:40:00,82.0,59.8,30.02,WSW,241,7.0,-999.0,47,0.00,,,0.00,70,Wunderground v.1.15,2013-04-09 22:40:00,
2013-04-09 18:46:00,82.0,59.8,30.01,SW,228,4.0,-999.0,47,0.00,,,0.00,54,Wunderground v.1.15,2013-04-09 22:46:00,
2013-04-09 18:51:00,81.9,60.3,30.01,West,263,3.0,-999.0,48,0.00,,,0.00,47,Wunderground v.1.15,2013-04-09 22:51:00,
2013-04-09 18:57:00,81.6,60.0,30.02,WSW,251,3.0,-999.0,48,0.00,,,0.00,40,Wunderground v.1.15,2013-04-09 22:57:00,
2013-04-09 19:03:00,81.4,59.8,30.01,WSW,242,2.0,-999.0,48,0.00,,,0.00,35,Wunderground v.1.15,2013-04-09 23:03:00,
2013-04-09 19:08:00,81.3,60.3,30.01,WSW,252,2.0,-999.0,49,0.00,,,0.00,33,Wunderground v.1.15,2013-04-09 23:08:00,
2013-04-09 19:14:00,81.0,60.0,30.01,WSW,239,3.0,-999.0,49,0.00,,,0.00,28,Wunderground v.1.15,2013-04-09 23:14:00,
2013-04-09 19:19:00,80.7,59.8,30.01,SW,229,3.0,-999.0,49,0.00,,,0.00,23,Wunderground v.1.15,2013-04-09 23:19:00,
2013-04-09 19:25:00,80.4,59.5,30.01,SW,227,3.0,-999.0,49,0.00,,,0.00,19,Wunderground v.1.15,2013-04-09 23:25:00,
2013-04-09 19:30:00,80.1,59.8,30.02,SSW,209,3.0,-999.0,50,0.00,,,0.00,14,Wunderground v.1.15,2013-04-09 23:30:00,
2013-04-09 19:36:00,79.8,59.5,30.02,SW,229,2.0,-999.0,50,0.00,,,0.00,11,Wunderground v.1.15,2013-04-09 23:36:00,
2013-04-09 19:41:00,79.3,59.6,30.02,WSW,253,1.0,-999.0,51,0.00,,,0.00,7,Wunderground v.1.15,2013-04-09 23:41:00,
2013-04-09 19:47:00,79.1,59.4,30.02,WSW,238,2.0,-999.0,51,0.00,,,0.00,0,Wunderground v.1.15,2013-04-09 23:47:00,
2013-04-09 19:53:00,78.9,59.2,30.02,SW,223,2.0,-999.0,51,0.00,,,0.00,0,Wunderground v.1.15,2013-04-09 23:53:00,
2013-04-09 19:58:00,78.7,59.6,30.02,SW,223,1.0,-999.0,52,0.00,,,0.00,0,Wunderground v.1.15,2013-04-09 23:58:00,
2013-04-09 20:04:00,78.4,59.3,30.02,SW,225,1.0,-999.0,52,0.00,,,0.00,0,Wunderground v.1.15,2013-04-10 00:04:00,
2013-04-09 20:09:00,78.2,59.1,30.02,SSW,200,1.0,-999.0,52,0.00,,,0.00,0,Wunderground v.1.15,2013-04-10 00:09:00,
2013-04-09 20:15:00,77.9,59.4,30.03,WSW,240,2.0,-999.0,53,0.00,,,0.00,0,Wunderground v.1.15,2013-04-10 00:15:00,
2013-04-09 20:21:00,77.6,59.1,30.02,SW,227,1.0,-999.0,53,0.00,,,0.00,0,Wunderground v.1.15,2013-04-10 00:21:00,
2013-04-09 20:27:00,77.5,59.0,30.03,SW,234,2.0,-999.0,53,0.00,,,0.00,0,Wunderground v.1.15,2013-04-10 00:27:00,
2013-04-09 20:33:00,77.1,59.2,30.03,SW,234,1.0,-999.0,54,0.00,,,0.00,0,Wunderground v.1.15,2013-04-10 00:33:00,
2013-04-09 20:38:00,76.8,58.9,30.03,SW,234,0.0,-999.0,54,0.00,,,0.00,0,Wunderground v.1.15,2013-04-10 00:38:00,
2013-04-09 20:44:00,76.5,59.1,30.03,SW,234,0.0,-999.0,55,0.00,,,0.00,0,Wunderground v.1.15,2013-04-10 00:44:00,
2013-04-09 20:49:00,76.3,58.9,30.03,SW,234,0.0,-999.0,55,0.00,,,0.00,0,Wunderground v.1.15,2013-04-10 00:49:00,
2013-04-09 20:55:00,76.0,59.2,30.03,SW,234,0.0,-999.0,56,0.00,,,0.00,0,Wunderground v.1.15,2013-04-10 00:55:00,
2013-04-09 21:00:00,75.8,59.0,30.04,WSW,242,1.0,-999.0,56,0.00,,,0.00,0,Wunderground v.1.15,2013-04-10 01:00:00,
2013-04-09 21:06:00,75.7,58.9,30.04,WSW,240,1.0,-999.0,56,0.00,,,0.00,0,Wunderground v.1.15,2013-04-10 01:06:00,
2013-04-09 21:12:00,75.4,59.1,30.04,SW,225,1.0,-999.0,57,0.00,,,0.00,0,Wunderground v.1.15,2013-04-10 01:12:00,
2013-04-09 21:17:00,75.2,58.9,30.04,SW,230,0.0,-999.0,57,0.00,,,0.00,0,Wunderground v.1.15,2013-04-10 01:17:00,
2013-04-09 21:22:00,75.2,58.9,30.04,SW,236,2.0,-999.0,57,0.00,,,0.00,0,Wunderground v.1.15,2013-04-10 01:22:00,
2013-04-09 21:28:00,75.1,58.8,30.04,SW,227,2.0,-999.0,57,0.00,,,0.00,0,Wunderground v.1.15,2013-04-10 01:28:00,
2013-04-09 21:33:00,74.9,59.1,30.04,WSW,237,1.0,-999.0,58,0.00,,,0.00,0,Wunderground v.1.15,2013-04-10 01:33:00,
2013-04-09 21:38:00,74.8,59.0,30.04,WSW,238,1.0,-999.0,58,0.00,,,0.00,0,Wunderground v.1.15,2013-04-10 01:38:00,
2013-04-09 21:44:00,74.6,58.8,30.04,SSW,196,1.0,-999.0,58,0.00,,,0.00,0,Wunderground v.1.15,2013-04-10 01:44:00,
2013-04-09 21:49:00,74.4,58.7,30.04,SSW,197,1.0,-999.0,58,0.00,,,0.00,0,Wunderground v.1.15,2013-04-10 01:49:00,
2013-04-09 21:55:00,74.3,58.6,30.04,SW,227,0.0,-999.0,58,0.00,,,0.00,0,Wunderground v.1.15,2013-04-10 01:55:00,
2013-04-09 22:00:00,74.2,58.9,30.04,SW,234,0.0,-999.0,59,0.00,,,0.00,0,Wunderground v.1.15,2013-04-10 02:00:00,
2013-04-09 22:06:00,74.1,58.9,30.04,SW,232,1.0,-999.0,59,0.00,,,0.00,0,Wunderground v.1.15,2013-04-10 02:06:00,
2013-04-09 22:12:00,73.9,58.7,30.04,WSW,240,1.0,-999.0,59,0.00,,,0.00,0,Wunderground v.1.15,2013-04-10 02:12:00,
2013-04-09 22:17:00,73.8,58.6,30.04,SW,224,2.0,-999.0,59,0.00,,,0.00,0,Wunderground v.1.15,2013-04-10 02:17:00,
2013-04-09 22:23:00,73.7,58.9,30.04,SW,234,1.0,-999.0,60,0.00,,,0.00,0,Wunderground v.1.15,2013-04-10 02:23:00,
2013-04-09 22:28:00,73.5,58.8,30.04,WSW,238,1.0,-999.0,60,0.00,,,0.00,0,Wunderground v.1.15,2013-04-10 02:28:00,
2013-04-09 22:34:00,73.3,58.6,30.04,SW,229,1.0,-999.0,60,0.00,,,0.00,0,Wunderground v.1.15,2013-04-10 02:34:00,
2013-04-09 22:40:00,73.1,58.4,30.04,SW,226,1.0,-999.0,60,0.00,,,0.00,0,Wunderground v.1.15,2013-04-10 02:40:00,
2013-04-09 22:45:00,73.0,58.8,30.04,WSW,244,1.0,-999.0,61,0.00,,,0.00,0,Wunderground v.1.15,2013-04-10 02:45:00,
2013-04-09 22:50:00,72.9,58.7,30.03,SW,229,1.0,-999.0,61,0.00,,,0.00,0,Wunderground v.1.15,2013-04-10 02:50:00,
2013-04-09 22:57:00,72.7,58.5,30.03,SSW,209,1.0,-999.0,61,0.00,,,0.00,0,Wunderground v.1.15,2013-04-10 02:57:00,
2013-04-09 23:03:00,72.6,58.4,30.03,SW,224,1.0,-999.0,61,0.00,,,0.00,0,Wunderground v.1.15,2013-04-10 03:03:00,
2013-04-09 23:09:00,72.4,58.6,30.03,WSW,237,1.0,-999.0,62,0.00,,,0.00,0,Wunderground v.1.15,2013-04-10 03:09:00,
2013-04-09 23:15:00,72.2,58.5,30.03,SW,236,2.0,-999.0,62,0.00,,,0.00,0,Wunderground v.1.15,2013-04-10 03:15:00,
2013-04-09 23:21:00,72.1,58.4,30.03,WSW,238,1.0,-999.0,62,0.00,,,0.00,0,Wunderground v.1.15,2013-04-10 03:21:00,
2013-04-09 23:26:00,72.0,58.3,30.03,WSW,238,1.0,-999.0,62,0.00,,,0.00,0,Wunderground v.1.15,2013-04-10 03:26:00,
2013-04-09 23:31:00,71.9,58.6,30.03,SW,234,2.0,-999.0,63,0.00,,,0.00,0,Wunderground v.1.15,2013-04-10 03:31:00,
2013-04-09 23:37:00,71.7,58.4,30.02,WSW,257,2.0,-999.0,63,0.00,,,0.00,0,Wunderground v.1.15,2013-04-10 03:37:00,
2013-04-09 23:43:00,71.6,58.3,30.02,West,274,2.0,-999.0,63,0.00,,,0.00,0,Wunderground v.1.15,2013-04-10 03:43:00,
2013-04-09 23:49:00,71.5,58.2,30.02,West,274,1.0,-999.0,63,0.00,,,0.00,0,Wunderground v.1.15,2013-04-10 03:49:00,
2013-04-09 23:54:00,71.3,58.1,30.02,West,261,1.0,-999.0,63,0.00,,,0.00,0,Wunderground v.1.15,2013-04-10 03:54:00,
2013-04-09 23:59:00,71.3,58.1,30.02,WSW,238,1.0,-999.0,63,0.00,,,0.00,0,Wunderground v.1.15,2013-04-10 03:59:00,